Weather in Kazackoe

Ukraine / Odesa District     47°59′32″N   29°40′25″E
temp.,
°C
wind,
m/s
gust,
m/s
humid.,
%
clouds,
%
prec.,
mm/h
press.,
hPa
HPBL,
m
13 may, thu
thu1300:00+7ese12805 0.0 101212
03:00+6se228550 0.0 101213
06:00+6sse358597 0.0 101199
09:00+8se4884100 0.2 1011335
12:00+14sse7106570 0.1 10101046
15:00+15sse6966100 0.1 10091113
18:00+11sse51084100 0.1 1009611
21:00+11se6127321 0.2 1008459
14 may, fri
fri1400:00+8sse41188100 0.0 1008238
03:00+7sse398958 0.0 1008167
06:00+7sse3589100 0.0 100787
09:00+10se2491100 1.4 1007165
12:00+13ssw2477100 0.1 1007465
15:00+14w467811 0.2 1008674
18:00+18wsw466417 0.0 10071126
21:00+12sw118866 1.3 100810
15 may, sat
sat1500:00+12s118587 0.1 100910
03:00+11ssw2289100 0.1 100912
06:00+10nw229139 0.0 101025
09:00+15wnw466610 0.0 1012492
12:00+18wnw455651 0.0 10121153
15:00+20w34507 0.0 10121705
18:00+19nw2361100 0.0 1011154
21:00+14ne127056 0.0 101211
16 may, sun
sun1600:00+13e33774 0.0 101229
03:00+12e22875 0.0 101217
06:00+11ene2290100 0.0 101214
09:00+17ese3473100 0.0 1012364
12:00+21ese355298 0.0 10111206
15:00+23se4647100 0.0 10092109
18:00+22se1360100 0.0 1008366
21:00+18ene1163100 0.0 100711
17 may, mon
mon1700:00+16nnw347690 0.1 100649
03:00+14nnw2392100 1.4 100558
06:00+14n2397100 0.6 100495
09:00+15n4697100 5.6 1004219
12:00+16nnw228696 0.2 1004246
15:00+21wnw3465100 1.4 10041105
18:00+19w457524 2.9 1004455
21:00+15nw34939 3.8 100676